SKY MUSTER 1 (NBN1A)

Last updated on Tue Sep 22 2026 00:03:13 GMT+0000 (Coordinated Universal Time)

1 40940U 15054A 26264.50932317 -.00000282 00000+0 00000+0 0 9993 2 40940 0.0175 239.8660 0001756 290.4147 153.7314 1.00272254 40227
UTC large
Height (km)
Speed (km/s)
/
Latitude / Longitude
Inclination (degrees)
Orbital Period (minutes)
Azimuth
Elevation
Range (km)
Doppler Factor

Next 0 passes for location: London (51.5072 / 0.1276)

No passes found over London.
SKY MUSTER 1 (NBN1A)